Wind_Speed
10 12 9 7 6 5 6 10 12 14 15 15 13 14 14 15 14 14 11 9 8 7 7 4 3 4 5 6 7 7 7 8 8 8 7 7 7 7 6 5 6 6 6
4 8 6 6 7 7 7 9 12 12 13 12 12 15 15 14 13 12 12 10 7 7 8 4 3 3 5 6 7 9 10 11 11 8 8 7 7 8 7 7 6 5 5
4 4 2 2 5 6 5 6 10 9 12 11 12 14 13 13 12 13 11 10 7 7 7 5 4 4 5 5 7 10 11 12 11 11 9 9 8 7 8 8 8 7 6
6 6 5 3 1 4 7 6 8 9 10 12 12 12 12 12 13 11 9 9 9 6 6 5 5 6 5 6 6 9 10 11 10 11 11 10 9 9 9 9 9 9 8
5 7 6 5 2 3 4 6 7 6 8 11 12 10 10 10 10 9 9 9 8 5 5 5 4 4 4 4 3 6 9 9 9 10 11 10 10 10 11 11 9 9 8
3 2 4 6 4 6 5 3 6 6 7 9 11 9 8 8 8 8 8 8 8 6 5 5 4 4 3 3 2 9 7 9 9 10 9 10 11 11 10 9 8 9 9
3 1 3 5 4 6 6 6 8 8 8 8 9 8 6 6 6 8 8 8 6 6 5 5 5 5 5 3 4 10 7 8 7 7 8 8 10 10 9 8 7 7 6
3 4 8 7 6 6 6 8 8 9 9 8 8 7 6 6 6 7 7 7 6 4 4 5 6 7 6 4 6 6 5 4 4 6 5 5 6 7 7 5 5 4 4
3 5 7 5 5 6 6 6 9 11 11 10 9 6 6 6 7 6 7 6 6 5 5 4 6 7 6 7 8 7 5 6 4 3 4 5 5 5 6 5 4 4 5
1 3 3 4 4 5 8 5 5 12 9 6 7 7 6 7 7 6 7 7 7 6 6 5 4 6 6 6 5 6 6 5 3 3 3 4 5 6 5 4 3 4 4
2 0 2 2 0 2 5 10 8 8 14 10 9 7 6 6 7 5 7 7 8 7 7 5 5 5 6 6 5 5 3 2 3 3 2 3 4 4 5 4 3 3 2
3 2 1 0 2 3 10 8 8 4 3 15 13 10 8 5 7 6 6 8 7 7 7 8 6 5 6 7 6 5 4 2 3 4 3 2 3 4 5 5 3 3 3
3 4 3 2 4 1 3 8 11 5 5 10 11 10 9 6 6 7 7 6 5 6 5 8 8 6 7 8 7 5 5 5 5 6 5 4 5 6 6 5 4 3 3
3 3 3 3 3 4 5 10 5 4 7 9 10 9 9 7 5 8 7 7 6 7 5 7 6 5 5 8 9 6 6 7 6 6 6 6 7 8 8 8 7 4 4
3 2 3 3 1 2 4 7 5 8 11 8 7 7 7 3 2 5 7 5 5 7 5 7 4 4 5 11 11 8 6 7 6 6 7 6 6 6 6 6 7 6 5
2 1 0 2 2 2 2 4 5 11 9 7 7 6 5 3 1 2 4 3 7 7 5 6 5 5 7 9 8 7 6 7 6 5 5 5 4 4 5 5 7 8 8
2 1 2 1 3 1 1 2 4 11 9 8 7 6 4 3 2 2 4 5 11 9 6 5 5 5 7 8 6 5 5 5 6 5 6 5 4 4 5 7 7 8 9
3 1 2 1 1 2 1 3 3 6 6 5 4 2 5 5 3 1 3 13 12 8 6 6 4 5 5 7 7 7 9 7 6 5 7 6 5 4 6 7 7 7 9
4 2 1 1 1 2 0 1 1 2 2 2 3 3 3 5 5 3 7 8 9 10 8 6 5 7 5 5 7 7 8 8 7 6 7 8 7 5 5 6 7 7 8
2 1 2 3 2 1 0 1 1 2 3 2 3 2 3 4 7 7 7 5 8 10 10 8 7 5 3 5 9 9 8 8 7 6 7 8 7 5 4 5 6 7 7
5 5 6 5 5 3 4 3 2 4 6 7 9 8 3 5 8 10 8 6 4 8 13 10 10 7 4 3 5 8 9 8 8 8 8 7 7 6 5 4 6 7 6
10 9 10 10 8 4 4 6 6 5 6 7 2 0 3 3 6 11 10 9 8 4 9 14 13 11 8 4 3 2 6 8 8 9 10 9 9 8 7 7 7 7 5
12 11 10 10 10 7 3 5 7 7 6 5 6 7 4 3 4 8 10 10 10 8 7 14 18 17 12 7 8 6 4 7 8 9 11 12 12 10 10 10 8 7 5
11 11 10 9 9 9 7 6 9 11 10 10 10 11 9 7 6 7 11 12 10 9 11 15 18 21 14 11 13 9 8 9 13 19 17 15 13 13 14 13 10 8 7
8 9 10 12 13 10 9 9 8 8 8 8 10 12 14 13 11 11 10 12 11 10 10 13 16 18 16 15 14 12 11 12 12 14 21 17 16 17 17 14 11 9 7
4 4 8 11 12 13 11 7 7 10 11 13 13 13 11 12 13 14 12 13 12 13 8 10 13 18 18 16 14 12 13 13 11 7 19 19 19 19 17 14 13 10 8
Wind_Direction
106 113 99 91 95 103 97 78 63 67 69 71 83 93 94 83 77 75 82 82 77 84 76 79 123 123 127 126 144 161 172 182 185 182 177 187 199 189 170 168 165 154 143
104 141 118 97 88 92 87 75 59 61 67 70 86 87 86 82 75 74 73 74 77 80 81 84 130 134 134 144 140 156 169 168 169 175 183 187 195 191 186 199 190 180 171
173 157 148 117 93 65 56 90 78 63 70 70 75 84 84 79 75 68 68 67 63 73 83 98 135 151 153 152 143 158 161 164 167 175 182 178 184 196 202 202 205 199 194
204 190 191 195 155 93 77 85 78 81 74 72 74 83 80 80 74 69 70 67 67 76 87 98 129 166 166 165 156 166 158 165 175 177 182 185 189 202 208 212 214 214 203
204 213 201 206 201 168 123 99 97 99 89 74 75 89 87 81 75 78 71 63 74 86 96 110 124 171 175 152 196 190 166 170 183 183 183 189 201 207 210 209 210 214 193
180 221 207 198 191 198 172 146 125 125 110 90 83 85 83 89 79 77 77 64 84 102 96 120 131 141 140 104 116 154 165 165 181 187 188 189 195 198 202 192 184 181 175
172 250 196 174 177 177 171 167 153 141 125 109 97 95 93 91 75 67 73 65 80 94 94 133 131 113 115 141 150 177 146 143 167 187 188 186 187 183 187 182 187 185 179
130 103 149 160 155 166 167 166 174 158 145 135 117 99 104 87 77 67 74 71 80 79 101 132 115 113 117 95 99 158 177 186 159 171 174 180 184 182 179 182 185 197 192
126 131 148 163 159 198 190 176 180 175 166 152 138 117 116 98 91 86 88 79 89 92 94 121 123 114 101 87 98 109 120 137 164 129 154 162 174 179 180 195 203 209 222
210 180 169 193 214 263 225 218 181 171 164 161 145 128 126 112 102 86 101 95 103 98 94 106 112 115 113 103 111 88 86 150 132 146 142 152 167 175 175 184 210 222 224
300 149 202 194 291 216 220 245 236 207 182 164 143 131 129 121 107 109 111 107 108 99 94 102 119 127 131 136 130 129 127 104 174 147 144 177 166 169 154 147 141 162 175
333 349 32 356 314 240 286 12 359 310 197 169 136 143 143 124 121 121 126 110 99 108 93 108 107 133 143 153 157 141 136 143 169 151 138 153 150 139 133 121 113 106 108
349 333 326 10 14 85 285 310 303 11 53 126 156 150 139 133 122 100 117 130 119 127 110 108 106 137 160 152 167 159 156 157 158 138 137 137 134 121 113 109 110 116 117
9 353 353 29 35 31 21 341 316 146 129 139 134 143 144 141 128 97 118 124 136 133 128 129 112 121 167 158 151 144 142 140 136 128 126 128 128 123 110 101 95 109 111
42 348 342 1 38 338 4 360 214 177 144 153 146 148 130 146 160 133 109 120 164 134 136 155 126 103 124 145 142 143 150 144 143 135 130 133 131 126 111 108 109 99 109
70 185 127 360 344 239 5 7 99 92 111 135 153 150 145 159 61 134 195 177 182 179 153 158 161 121 125 134 132 138 152 156 147 137 137 131 134 127 115 107 112 106 97
57 105 192 179 40 104 357 348 60 92 93 103 112 140 179 172 135 140 258 254 194 188 182 172 174 152 139 138 138 152 165 156 158 151 149 150 148 135 123 105 103 105 101
97 101 210 214 40 25 352 26 81 54 79 83 78 96 204 196 179 23 324 179 183 193 198 196 205 199 182 167 154 157 161 164 166 165 169 155 152 155 139 121 110 110 109
60 58 48 279 327 359 310 145 121 76 83 22 22 7 235 201 191 131 156 183 192 202 214 223 228 234 205 210 187 170 165 171 171 173 179 179 174 168 153 139 128 118 114
49 358 314 331 330 290 331 259 293 319 327 317 303 338 289 224 199 184 172 177 223 220 219 228 243 244 235 232 210 187 195 173 173 193 194 188 183 179 173 156 135 126 122
39 19 14 337 330 327 304 287 318 325 308 296 283 265 287 229 202 205 202 195 217 238 227 230 247 241 205 115 165 193 199 202 204 212 218 209 200 190 183 173 149 135 131
53 38 33 27 13 336 314 307 306 304 314 345 272 64 320 271 227 209 220 225 210 206 238 232 242 238 206 202 166 173 185 202 215 220 226 225 213 201 186 179 167 155 151
67 72 64 51 31 9 321 307 312 316 313 313 318 305 307 305 288 245 241 243 241 230 238 237 239 242 222 208 224 232 222 219 242 229 231 226 217 204 183 182 181 182 186
68 71 67 59 56 59 45 355 353 346 336 328 316 312 317 305 282 279 256 258 250 253 265 250 230 235 227 208 224 230 241 249 262 238 227 218 215 203 188 187 196 202 211
42 59 52 45 39 32 33 36 26 3 353 337 326 327 322 313 304 289 283 264 262 267 268 232 227 226 235 234 231 237 248 258 280 232 206 210 209 201 196 194 202 212 224
18 28 13 23 27 26 9 4 10 17 353 344 333 321 308 308 306 300 294 278 275 278 270 228 218 233 234 242 239 252 254 250 262 224 203 210 206 203 203 206 211 212 215
Height
5906 5907 5907 5907 5908 5910 5911 5912 5913 5912 5912 5912 5912 5911 5911 5909 5908 5907 5908 5908 5909 5909 5909 5909 5909 5909 5910 5910 5911 5912 5913 5913 5914 5914 5914 5915 5915 5915 5914 5914 5915 5915 5914
5908 5908 5909 5910 5911 5912 5913 5913 5913 5914 5914 5914 5913 5912 5911 5909 5908 5909 5909 5909 5910 5910 5910 5910 5910 5910 5911 5912 5912 5912 5913 5914 5914 5915 5915 5915 5915 5915 5915 5915 5915 5915 5915
5908 5909 5909 5910 5911 5912 5913 5914 5915 5916 5916 5914 5914 5912 5912 5910 5910 5910 5910 5910 5911 5911 5911 5911 5911 5911 5912 5913 5913 5913 5914 5914 5914 5915 5915 5915 5916 5916 5916 5917 5917 5916 5917
5909 5909 5909 5911 5911 5911 5913 5915 5916 5916 5916 5915 5915 5914 5913 5912 5911 5912 5911 5911 5911 5911 5911 5911 5912 5912 5913 5913 5913 5913 5914 5914 5915 5915 5916 5916 5916 5917 5918 5918 5918 5918 5918
5909 5909 5909 5910 5911 5912 5913 5916 5916 5916 5915 5915 5915 5915 5914 5914 5912 5913 5912 5911 5911 5911 5911 5912 5912 5912 5913 5914 5913 5914 5913 5914 5915 5916 5916 5917 5917 5918 5918 5918 5919 5919 5919
5910 5911 5909 5910 5911 5912 5913 5915 5916 5916 5915 5914 5914 5915 5915 5914 5914 5913 5912 5912 5912 5911 5911 5913 5913 5913 5914 5914 5914 5914 5914 5915 5916 5917 5917 5917 5918 5919 5919 5920 5920 5920 5920
5910 5911 5910 5910 5911 5912 5913 5915 5916 5916 5915 5914 5914 5914 5915 5915 5914 5914 5913 5913 5912 5912 5912 5912 5912 5913 5914 5914 5914 5915 5915 5916 5917 5918 5918 5918 5919 5920 5920 5921 5921 5921 5922
5912 5911 5911 5910 5911 5912 5912 5914 5915 5916 5914 5913 5914 5914 5914 5915 5915 5915 5914 5914 5913 5913 5913 5913 5913 5913 5914 5914 5915 5915 5916 5917 5918 5918 5919 5919 5920 5921 5921 5921 5921 5922 5922
5912 5912 5912 5912 5912 5912 5911 5912 5914 5914 5914 5912 5913 5914 5914 5915 5915 5915 5915 5915 5914 5914 5914 5914 5914 5914 5915 5915 5915 5915 5917 5917 5918 5919 5920 5920 5920 5921 5921 5922 5922 5922 5922
5913 5913 5913 5913 5913 5913 5912 5912 5912 5912 5913 5913 5915 5915 5915 5915 5916 5916 5916 5916 5915 5915 5916 5916 5916 5916 5916 5916 5917 5917 5918 5918 5918 5919 5920 5920 5921 5921 5922 5922 5922 5922 5923
5913 5913 5913 5913 5913 5913 5912 5910 5908 5907 5909 5913 5914 5916 5916 5916 5917 5917 5917 5917 5916 5916 5917 5917 5917 5917 5917 5917 5918 5918 5919 5919 5919 5920 5921 5921 5921 5921 5921 5922 5922 5922 5923
5913 5913 5913 5914 5914 5912 5910 5906 5908 5908 5907 5910 5912 5914 5916 5916 5917 5917 5916 5917 5916 5917 5917 5918 5918 5917 5917 5917 5918 5918 5919 5920 5920 5920 5921 5921 5922 5922 5921 5922 5922 5923 5923
5914 5914 5914 5915 5913 5912 5912 5910 5908 5907 5906 5907 5913 5914 5915 5916 5917 5916 5917 5916 5917 5918 5918 5918 5918 5917 5917 5917 5917 5918 5919 5920 5921 5920 5921 5921 5922 5922 5922 5922 5923 5924 5924
5914 5914 5915 5916 5914 5913 5911 5910 5907 5908 5909 5911 5912 5914 5914 5916 5916 5916 5917 5917 5917 5918 5918 5919 5919 5918 5917 5916 5917 5918 5919 5920 5921 5921 5921 5921 5922 5922 5922 5923 5923 5925 5925
5914 5914 5915 5916 5915 5914 5913 5911 5908 5909 5910 5912 5913 5915 5915 5916 5915 5916 5917 5918 5918 5918 5919 5919 5919 5919 5918 5917 5917 5918 5919 5920 5921 5922 5922 5923 5923 5923 5923 5923 5924 5925 5925
5914 5914 5915 5915 5915 5915 5914 5912 5910 5908 5910 5912 5913 5914 5916 5915 5914 5915 5916 5918 5918 5919 5920 5919 5919 5920 5919 5919 5919 5920 5921 5921 5921 5922 5923 5924 5924 5925 5924 5924 5925 5925 5925
5915 5915 5915 5914 5914 5913 5913 5913 5910 5911 5912 5913 5913 5913 5914 5915 5914 5914 5915 5916 5917 5918 5920 5920 5920 5920 5920 5920 5920 5921 5921 5922 5923 5923 5924 5924 5925 5926 5926 5926 5926 5926 5926
5917 5916 5916 5915 5914 5913 5913 5914 5913 5913 5913 5913 5913 5914 5914 5915 5915 5915 5913 5913 5916 5918 5919 5919 5919 5919 5920 5919 5920 5921 5921 5922 5924 5924 5925 5925 5926 5926 5927 5927 5928 5928 5927
5918 5918 5918 5917 5915 5914 5914 5914 5914 5913 5913 5914 5915 5915 5914 5915 5916 5916 5915 5915 5915 5917 5918 5918 5918 5917 5919 5919 5919 5921 5922 5922 5923 5925 5926 5927 5928 5928 5928 5928 5929 5929 5929
5919 5919 5919 5918 5917 5916 5915 5915 5915 5915 5915 5915 5915 5916 5915 5914 5916 5916 5916 5916 5916 5915 5916 5916 5916 5917 5918 5918 5918 5919 5921 5922 5923 5925 5927 5927 5928 5929 5929 5929 5929 5930 5932
5921 5921 5920 5919 5918 5918 5917 5915 5915 5916 5916 5916 5916 5916 5916 5915 5915 5916 5916 5915 5915 5914 5915 5915 5915 5916 5917 5917 5917 5918 5919 5920 5922 5923 5925 5926 5927 5928 5929 5930 5931 5931 5932
5922 5921 5921 5920 5919 5919 5918 5918 5917 5917 5915 5915 5915 5917 5918 5916 5916 5916 5916 5915 5915 5914 5913 5914 5913 5915 5916 5917 5917 5918 5919 5920 5921 5922 5923 5925 5926 5927 5929 5930 5931 5932 5933
5923 5921 5920 5919 5919 5919 5919 5919 5918 5919 5918 5917 5917 5916 5917 5917 5917 5916 5916 5916 5915 5913 5912 5912 5912 5911 5914 5914 5916 5917 5918 5920 5920 5921 5922 5924 5925 5927 5928 5930 5932 5933 5934
5922 5921 5920 5920 5919 5917 5918 5918 5919 5919 5919 5919 5919 5917 5916 5916 5916 5915 5915 5915 5914 5913 5912 5910 5910 5910 5911 5912 5915 5915 5917 5918 5919 5919 5920 5922 5924 5926 5927 5929 5931 5933 5934
5924 5922 5920 5919 5919 5919 5918 5916 5915 5915 5916 5916 5916 5917 5917 5917 5915 5915 5914 5914 5914 5912 5909 5908 5908 5909 5908 5909 5912 5913 5914 5916 5916 5914 5917 5921 5923 5925 5927 5928 5930 5932 5934
5924 5922 5920 5919 5918 5918 5917 5915 5914 5914 5914 5914 5914 5913 5913 5913 5914 5914 5913 5913 5913 5913 5911 5909 5909 5908 5908 5909 5909 5912 5912 5914 5915 5916 5917 5919 5922 5924 5926 5928 5930 5932 5933